Location: Bidart
(43.4376°N, 1.5913°W)
Time: 05:31:53
(UTC+00:00)

H-2A DEB - Pass Details

Date: 19 April 2026
Orbit: 584 x 592 km, 98.2° (Epoch: 15 May)

Event Time Altitude Azimuth Distance (km) Brightness Sun altitude
Exits shadow 00:35:44 15° 39° (NE) 1,635 ? -35.0°
Drops below altitude 10° 00:37:03 10° 23° (NNE) 1,929 ? -35.0°
Sets 00:39:49 0° 3° (N) 2,837 ? -34.9°
